Home > Weather > San Andrés > Past weeks

Flag for Colombia Weather for the Past 2 Weeks in San Andrés, Colombia

Now
81 °F

Passing clouds.


Feels Like: 86 °F
Forecast: 79 / 84 °F
Wind: 13 mph from Northeast

Location: San Andres Isla / Sesquicentenario

Current Time: Feb 14, 2016 at 8:50:30 AM

Latest Report: Feb 14, 2016 at 8:00 AM


Visibility: N/A

Pressure: 29.89 "Hg

Humidity: 84%

Dew point: 75 °F

Location of San AndrésLocation

Historic Weather in San Andrés — Graph

°F

San Andrés Temperature Yesterday

Maximum temperature yesterday: 84 °F (at 10:00 AM)
Minimum temperature yesterday: 79 °F (at 1:00 AM)
Average temperature yesterday: 81 °F

High & Low Weather Summary for the Past Weeks

 TemperatureHumidityPressure
High84 °F (Jan 30, 2:00 PM)94% (Feb 4, 6:00 AM)30.07 "Hg (Feb 4, 6:00 AM)
Low75 °F (Feb 4, 6:00 AM)66% (Feb 6, 3:00 PM)29.82 "Hg (Feb 2, 4:00 PM)
Average81 °F79%29.94 "Hg
* Reported Jan 30 7:00 AM — Feb 14 7:00 AM, San Andrés, Weather by CustomWeather, © 2016

Note: Actual official high and low records may vary slightly from our data, if they occured in-between our weather recording intervals... More about our weather records

Advertising

San Andrés Weather History for the Previous 24 Hours

 ConditionsComfort  
Time TempWeatherWind HumidityBarometerVisibility
7:00 AM
Sun, Feb 14
79 °FScattered clouds.12 mph89%29.87 "HgN/A
6:00 AM79 °FPassing clouds.10 mph84%29.87 "HgN/A
5:00 AM81 °FPassing clouds.14 mph79%29.86 "HgN/A
4:00 AM81 °FPassing clouds.14 mph79%29.86 "HgN/A
3:00 AM81 °FPassing clouds.12 mph79%29.87 "HgN/A
2:00 AM81 °FPassing clouds.14 mph79%29.89 "HgN/A
1:00 AM81 °FPassing clouds.13 mph79%29.92 "HgN/A
12:00 AM81 °FPassing clouds.12 mph84%29.94 "HgN/A
11:00 PM
Sat, Feb 13
81 °FPassing clouds.13 mph84%29.95 "HgN/A
10:00 PM79 °FPassing clouds.10 mph89%29.95 "HgN/A
9:00 PM81 °FPassing clouds.12 mph84%29.94 "HgN/A
8:00 PM81 °FPassing clouds.13 mph84%29.92 "HgN/A
7:00 PM81 °FPassing clouds.10 mph84%29.90 "HgN/A
6:00 PM82 °FScattered clouds.10 mph79%29.89 "HgN/A
5:00 PM82 °FPassing clouds.9 mph79%29.88 "HgN/A
4:00 PM84 °FScattered clouds.12 mph74%29.88 "HgN/A
3:00 PM84 °FScattered clouds.12 mph74%29.90 "HgN/A
2:00 PM82 °FScattered clouds.9 mph79%29.93 "HgN/A
1:00 PM84 °FScattered clouds.10 mph74%29.95 "HgN/A
12:00 PM84 °FScattered clouds.8 mph74%29.97 "HgN/A
11:00 AM84 °FPassing clouds.12 mph70%29.98 "HgN/A
10:00 AM84 °FPassing clouds.9 mph74%29.98 "HgN/A
9:00 AM82 °FPassing clouds.8 mph79%29.97 "HgN/A
8:00 AM81 °FPassing clouds.10 mph84%29.95 "HgN/A
Weather by CustomWeather, © 2016

See weather overviewHow to use our weather pages